CW4421 Weather Reports


Display with metric or nautical units.
time (UTC)temp
F
wind
direction
speed
MPH
gust
MPH
rain 1hr
in
rain 24hr
in
rain mn
in
humidity
%
barometer
mb
20260508030045 61 213 5.0 6.0 0.00 0.00 0.00 47 1007.9
20260508024547 61 207 5.0 7.0 0.00 0.00 0.00 46 1007.7
20260508023041 62 208 5.0 7.0 0.00 0.00 0.00 46 1007.6
20260508021545 63 205 5.0 6.0 0.00 0.00 0.00 45 1007.5
20260508020041 64 207 4.0 6.0 0.00 0.00 0.00 42 1007.5
20260508014549 67 207 4.0 5.0 0.00 0.00 0.00 38 1007.4
20260508013044 70 207 3.0 6.0 0.00 0.00 0.00 34 1007.2
20260508011543 72 226 5.0 6.0 0.00 0.00 0.00 32 1007.1
20260508010038 74 225 3.0 6.0 0.00 0.00 0.00 29 1007.0
20260508004538 77 229 3.0 7.0 0.00 0.00 0.00 27 1007.1
20260508003054 78 246 5.0 7.0 0.00 0.00 0.00 25 1007.1
20260508001536 79 232 4.0 9.0 0.00 0.00 0.00 25 1007.1
20260508000042 79 234 6.0 12.0 0.00 0.00 0.00 24 1007.2
20260507234539 80 244 3.0 10.0 0.00 0.00 0.00 24 1007.3
20260507233037 79 247 5.0 13.0 0.00 0.00 0.00 24 1007.5
20260507231535 80 250 5.0 13.0 0.00 0.00 0.00 24 1007.6
20260507230038 81 240 3.0 13.0 0.00 0.00 0.00 24 1007.8
20260507224543 81 219 8.0 13.0 0.00 0.00 0.00 25 1007.8
20260507223031 81 308 4.0 8.0 0.00 0.00 0.00 25 1007.9
20260507221529 80 236 5.0 18.0 0.00 0.00 0.00 26 1008.3
20260507220027 80 235 6.0 13.0 0.00 0.00 0.00 25 1008.4
20260507214526 80 225 7.0 12.0 0.00 0.00 0.00 27 1008.5
20260507213025 80 232 7.0 11.0 0.00 0.00 0.00 25 1009.0
20260507211523 79 245 9.0 16.0 0.00 0.00 0.00 26 1009.1
20260507210022 78 250 5.0 12.0 0.00 0.00 0.00 26 1009.6
20260507204521 78 234 5.0 20.0 0.00 0.00 0.00 28 1009.7
20260507203019 78 236 5.0 16.0 0.00 0.00 0.00 27 1010.2
20260507201519 78 228 8.0 20.0 0.00 0.00 0.00 26 1010.3
20260507200014 77 225 14.0 19.0 0.00 0.00 0.00 27 1010.8
20260507194512 76 267 7.0 14.0 0.00 0.00 0.00 30 1011.0
20260507193009 75 188 10.0 18.0 0.00 0.00 0.00 32 1011.4
20260507191509 75 230 7.0 13.0 0.00 0.00 0.00 34 1011.9
20260507190006 74 253 11.0 19.0 0.00 0.00 0.00 34 1012.0
20260507184508 73 213 9.0 20.0 0.00 0.00 0.00 36 1012.2
20260507183100 71 252 8.0 16.0 0.00 0.00 0.00 37 1012.6
20260507181559 71 263 7.0 15.0 0.00 0.00 0.00 37 1012.7
20260507180056 70 258 10.0 18.0 0.00 0.00 0.00 38 1013.2
20260507174553 69 225 10.0 18.0 0.00 0.00 0.00 38 1013.3
20260507173049 68 231 7.0 22.0 0.00 0.00 0.00 41 1013.7
20260507171546 67 213 8.0 19.0 0.00 0.00 0.00 43 1014.0
20260507170043 66 224 7.0 16.0 0.00 0.00 0.00 44 1014.2
20260507164540 65 221 9.0 15.0 0.00 0.00 0.00 45 1014.5
20260507163036 64 256 8.0 16.0 0.00 0.00 0.00 45 1014.8
20260507161534 63 252 8.0 13.0 0.00 0.00 0.00 50 1015.0
20260507160034 61 229 9.0 15.0 0.00 0.00 0.00 51 1015.0
20260507154529 60 240 8.0 14.0 0.00 0.00 0.00 53 1015.3
20260507153030 59 257 8.0 15.0 0.00 0.00 0.00 54 1015.5
20260507151521 58 266 8.0 16.0 0.00 0.00 0.00 57 1015.6
20260507150018 57 230 9.0 13.0 0.00 0.00 0.00 58 1015.6
20260507144514 55 280 9.0 16.0 0.00 0.00 0.00 62 1015.9
20260507143011 54 255 5.0 14.0 0.00 0.00 0.00 68 1016.2
20260507141507 52 256 7.0 12.0 0.00 0.00 0.00 73 1016.5
20260507140004 51 277 5.0 13.0 0.00 0.00 0.00 74 1016.7
20260507134602 50 250 7.0 13.0 0.00 0.00 0.00 77 1016.5
20260507133057 49 267 8.0 13.0 0.00 0.00 0.00 81 1016.8
20260507131557 47 254 5.0 12.0 0.00 0.00 0.00 85 1016.9
20260507130053 46 261 6.0 11.0 0.00 0.00 0.00 88 1016.8
20260507124555 44 250 4.0 9.0 0.00 0.00 0.00 89 1016.8
20260507123054 43 245 4.0 8.0 0.00 0.00 0.00 90 1016.8
20260507121551 41 244 5.0 7.0 0.00 0.00 0.00 92 1016.7
20260507120052 39 275 2.0 5.0 0.00 0.01 0.00 94 1016.7
20260507114549 38 251 1.0 4.0 0.00 0.01 0.00 92 1016.9
20260507113047 38 260 1.0 2.0 0.00 0.01 0.00 91 1016.8
20260507111547 38 252 1.0 5.0 0.00 0.01 0.00 91 1016.8
20260507110049 39 249 2.0 5.0 0.00 0.01 0.00 90 1016.8
20260507104542 39 267 2.0 3.0 0.00 0.01 0.00 91 1016.8
20260507103041 40 264 2.0 3.0 0.00 0.01 0.00 90 1016.8
20260507101557 40 263 2.0 5.0 0.00 0.01 0.00 90 1016.8
20260507100040 39 267 3.0 6.0 0.00 0.02 0.00 91 1017.0
20260507094543 39 252 2.0 5.0 0.00 0.02 0.00 90 1017.2
20260507093036 39 246 5.0 6.0 0.00 0.02 0.00 89 1017.3
20260507091550 40 268 2.0 4.0 0.00 0.02 0.00 90 1017.3
20260507090031 40 269 1.0 3.0 0.00 0.02 0.00 89 1017.3
20260507084529 41 270 1.0 3.0 0.00 0.02 0.00 89 1017.7
20260507083027 41 269 2.0 2.0 0.00 0.02 0.00 88 1017.9
20260507081535 42 271 1.0 4.0 0.00 0.02 0.00 89 1018.1
20260507080024 41 265 1.0 3.0 0.00 0.03 0.00 89 1018.4
20260507074525 42 275 1.0 2.0 0.00 0.03 0.00 87 1018.4
20260507073020 43 286 1.0 4.0 0.00 0.03 0.00 86 1018.3
20260507071518 43 280 1.0 3.0 0.00 0.03 0.00 85 1018.4
20260507070016 44 284 1.0 5.0 0.00 0.03 0.00 83 1018.4
20260507064515 44 301 2.0 5.0 0.00 0.03 0.00 83 1018.6
20260507063013 44 290 3.0 7.0 0.00 0.03 0.00 83 1018.9
20260507061526 44 280 4.0 6.0 0.00 0.03 0.00 83 1018.9
20260507060008 45 293 2.0 5.0 0.00 0.06 0.00 81 1018.8
20260507054505 45 280 2.0 5.0 0.00 0.06 0.00 81 1018.7
20260507053002 46 285 2.0 5.0 0.00 0.06 0.00 80 1018.5
20260507051558 47 290 1.0 3.0 0.00 0.06 0.00 79 1018.7
20260507050057 48 290 2.0 6.0 0.00 0.07 0.06 77 1018.9
20260507044601 49 289 1.0 5.0 0.00 0.07 0.06 78 1018.8
20260507043055 48 285 1.0 2.0 0.00 0.07 0.06 79 1018.6
20260507041554 49 284 1.0 2.0 0.00 0.07 0.06 79 1018.6
20260507040053 50 291 0.0 1.0 0.00 0.12 0.06 75 1018.5
20260507034553 49 307 2.0 4.0 0.00 0.12 0.06 74 1018.4
20260507033053 49 301 0.0 2.0 0.00 0.12 0.06 77 1018.7
20260507031552 49 285 0.0 2.0 0.00 0.12 0.06 76 1018.7